Location: Berkeley
(37.8716°N, 122.2727°W)
Time: 20:10:28
(UTC-07:00)

Envisat - Pass Details

Date: 18 May 2026
Orbit: 761 x 763 km, 98.4° (Epoch: 9 June)

Event Time Altitude Azimuth Distance (km) Brightness Sun altitude
Rises 05:00:49 0° 355° (N) 3,230 6.7 -10.3°
Reaches altitude 10° 05:03:49 10° 336° (NNW) 2,299 5.6 -9.8°
Maximum altitude 05:07:05 18° 296° (WNW) 1,829 4.7 -9.3°
Drops below altitude 10° 05:10:19 10° 255° (WSW) 2,290 4.9 -8.8°
Enters shadow 05:10:28 10° 254° (WSW) 2,328 4.9 -8.7°
